www.pogodaiklimat.ru

Погода и климат >> Архив погоды >> Казахстан >> Астана


АРХИВ ПОГОДЫ в Астане

Время (UTC), дата Ветер
(напр.,м/с)
 
Видим.   Явления Облачность Т
(С)
Тd
(С)
f
(%)
Тe
(С)
Тes
(С)
Комфортность P
(гПа)
Po
(гПа)
Тmin
(С)
Tmax
(С)
R
(мм)
R24
(мм)
S
(см)
06 16.05 С 1 10 км ясно +10.9 -7.3 27 +11 +29 опасность
простуды
1026.2 984.2 -0.6
09 16.05 В 2 10 км ясно +12.3 -6.8 26 +12 +26 опасность
простуды
1025.2 983.5
12 16.05 С 2 10 км 4/0
[Ci fib]
+13.4 -7.9 22 +13 +18 холодно 1024.6 983.0
15 16.05 С 1 10 км 8/0
[Ci]
+11.1 -9.0 23 +12 +12 прохладно 1024.4 982.5 +14.2
18 16.05 ЮЗ 2 н/о ясно +9.7 -7.3 29 +9 +9 прохладно 1024.5 982.4 +14.2
21 16.05 ЮЗ 2 н/о ясно +6.8 -5.9 40 +5 +5 прохладно 1024.7 982.2
00 17.05 Ю 1 10 км ясно +5.3 -2.4 58 +5 +5 прохладно 1024.5 981.8
03 17.05 ЮЗ 1 10 км 10/0
[Ci fib]
+11.2 -4.4 33 +12 +17 по сезону 1023.0 981.2
06 17.05 ЮЗ 2 10 км 10/0
[Cc]
+14.6 -8.1 20 +15 +27 опасность
простуды
1020.7 979.5 +4.9
09 17.05 ЮЗ 2 10 км 8/0
[Ci fib]
+18.2 -6.9 17 +19 +31 опасность
простуды
1017.1 976.5
12 17.05 Ю 2 10 км 4/0
[Ci fib]
+19.5 -5.1 18 +20 +24 тепло 1014.5 974.2
15 17.05 ЮЗ 1 10 км 3/0
[Ci fib]
+17.2 -2.5 26 +18 +18 тепло 1013.0 972.5 +20.0
18 17.05 ЮЗ 2 н/о 6/0
[Ac trans Ci fib]
+15.1 -3.9 27 +15 +15 тепло 1012.1 971.3 +20.0
21 17.05 Ю 3 н/о 6/0
[Ac trans Ci fib]
+12.5 -4.7 30 +12 +12 тепло 1010.4 969.3
00 18.05 Ю 3 10 км 8/8 1000 м
[Sc]
+10.5 -6.9 29 +9 +9 по сезону 1009.6 968.2
03 18.05 Ю 3 10 км 10/0
[Ac cuf Ci fib]
+14.0 -5.2 26 +13 +17 по сезону 1007.3 966.5
06 18.05 ЮВ 3 10 км 9/9 1000 м
[Sc]
+16.0 -4.0 25 +16 +17 по сезону 1005.6 965.2 +10.2
09 18.05 ЮЗ 2 10 км 10/4 1000 м
[Sc Ac cast]
+18.5 -1.4 26 +19 +22 тепло 1003.7 963.7
12 18.05 Ю 2 10 км в посл. час ливневой дождь 10/8 600 м
[Cb cap Ac cast]
+15.9 +4.4 46 +16 +16 прохладно 1002.3 962.1
15 18.05 ЮВ 1 4000 м слаб. ливневой дождь 9/9 600 м
[Cb cap]
+13.8 +9.2 74 +14 +14 по сезону 1001.6 961.1 +18.8
18 18.05 В 3 н/о {ливн. осадки} 10/10 300 м
[Sc]
+9.5 +9.1 97 +7 +7 прохладно 1004.1 962.9 +18.8 0.5
21 18.05 В 1 н/о 8/8 300 м
[St]
+7.4 +5.4 87 +6 +6 прохладно 1006.2 964.6
00 19.05 штиль 0 10 км ясно +5.0 +4.5 97 +4 +4 прохладно 1007.7 965.7
03 19.05 Ю 1 10 км 4/4 1000 м
[Sc]
+9.5 +6.1 79 +9 +14 прохладно 1008.2 966.8
06 19.05 Ю 2 10 км 8/4 1000 м
[Sc Ci]
+15.0 +3.9 47 +15 +23 по сезону 1007.3 966.7 +4.7 2
09 19.05 Ю 3 10 км 8/4 1000 м
[Sc Ac As Ci]
+17.2 -0.1 31 +17 +22 по сезону 1006.4 966.1
12 19.05 ЮЗ 4 10 км 9/8 600 м
[Sc Ac As]
+17.2 +0.2 32 +17 +17 по сезону 1005.0 964.8
15 19.05 З 2 10 км 4/4 1000 м
[Sc diur, vesp]
+12.4 +3.1 53 +12 +12 прохладно 1007.3 966.4 +18.4
18 19.05 СЗ 1 н/о в посл. час ливневой дождь 8/8 600 м
[Cb cap]
+10.0 +4.8 70 +10 +10 по сезону 1009.1 967.8 +18.4
21 19.05 штиль 0 н/о 9/9
[Cb cap]
+8.9 +5.2 78 +8 +8 по сезону 1008.9 967.4
00 20.05 штиль 0 10 км 10/8 600 м
[Cb cap Ac lent]
+8.5 +5.7 83 +8 +8 по сезону 1009.1 967.6
03 20.05 ЮВ 1 10 км в посл. час ливневой дождь 10/10 600 м
[Cb cap]
+9.9 +4.6 70 +10 +10 прохладно 1008.3 967.0
06 20.05 В 1 10 км {ливн. осадки} 10/10 600 м
[Cb cap]
+11.1 +1.0 50 +11 +11 очень
холодно
1008.1 966.9 +7.4 0.0
09 20.05 СВ 1 4000 м слаб. ливневой дождь 10/10 600 м
[Cb cap]
+7.5 +5.8 89 +7 +7 очень
холодно
1007.8 966.2
12 20.05 ЮЗ 3 10 км в посл. час ливневой дождь 8/6 600 м
[Cb cap Ac trans]
+11.8 +6.9 72 +10 +11 очень
холодно
1002.4 961.6
15 20.05 В 4 10 км осадки на расстоянии 10/10 600 м
[Cb cap]
+9.5 +5.2 75 +7 +7 очень
холодно
1004.7 963.5 +13.7
18 20.05 СВ 1 н/о ясно +6.6 +3.3 79 +6 +6 холодно 1006.5 964.8 +13.7 3
21 20.05 В 1 н/о 9/9 300 м
[St]
+4.1 +3.9 99 +2 +2 очень
холодно
1008.0 965.8
00 21.05 штиль 0 10 км ясно +2.6 +2.6 100 +1 +2 холодно 1008.9 966.5
03 21.05 Ю 1 10 км ясно +8.7 +2.4 65 +8 +16 прохладно 1008.8 967.3
06 21.05 В 3 10 км 8/8 1000 м
[Sc]
+11.4 -1.6 40 +10 +13 холодно 1009.2 968.0 +2.0
09 21.05 СЗ 3 10 км 8/8 1000 м
[Cu Sc]
+13.5 -3.6 30 +13 +15 холодно 1009.0 968.1
12 21.05 З 1 10 км осадки на расстоянии 10/6 600 м
[Cb cap Ac As]
+12.5 -4.3 31 +13 +14 холодно 1009.8 968.7
15 21.05 Ю 1 10 км осадки на расстоянии 8/3 600 м
[Cb cap Ac cuf]
+11.2 -2.6 38 +12 +12 прохладно 1010.5 969.2 +13.9
18 21.05 З 1 н/о 4/0
[Ac trans]
+7.7 -2.0 50 +7 +7 холодно 1011.0 969.2 +13.9
21 21.05 Ю 1 н/о ясно +5.3 -1.3 62 +5 +5 прохладно 1011.2 969.0
00 22.05 ЮВ 1 10 км 9/0
[Ac As]
+4.4 +0.8 77 +3 +3 прохладно 1010.9 968.6
03 22.05 З 2 10 км 9/0
[Ac As]
+8.3 -0.2 55 +7 +9 холодно 1010.6 968.9
06 22.05 З 3 10 км 8/8 1000 м
[Sc]
+9.9 -0.2 49 +8 +11 очень
холодно
1011.1 969.6 +4.2
09 22.05 СЗ 4 10 км 8/8 1000 м
[Cu med, cong]
+11.8 -2.8 36 +10 +12 очень
холодно
1011.5 970.3
12 22.05 СЗ 4 10 км 9/9 1000 м
[Sc]
+10.0 -2.1 43 +8 +8 очень
холодно
1013.5 971.9
15 22.05 З 1 10 км 6/6
[Sc diur, vesp]
+8.6 -1.1 50 +8 +8 очень
холодно
1015.3 973.5 +12.5
18 22.05 З 1 н/о 9/9 1000 м
[Sc]
+7.4 -1.1 55 +7 +7 холодно 1017.3 975.2 +12.5
21 22.05 Ю 1 н/о 10/10 1000 м
[Sc]
+6.1 +0.8 69 +5 +5 прохладно 1018.0 975.7
00 23.05 штиль 0 10 км 4/4 1000 м
[Sc]
+5.0 +1.0 75 +4 +4 прохладно 1019.1 976.6

 

Местоположение метеостанции Астана (город Астана, Казахстан): широта 51.13 долгота 71.37 высота над уровнем моря 350 м.

В архиве по умолчанию представлена погода в Астане за последнюю неделю. Архивные данные за месяц целиком и за предыдущие месяцы, начиная с января 2011 года, Вы можете получить, выбрав интересующий диапазон дат из раскрывающегося списка и нажав кнопку "Ввод!".


*Определитесь, кто Вы:
робот инопланетянин человек

Внимание! Время в таблицах - всемирное. Для получения местного времени необходимо прибавить поправку, которая равна 6 ч.

Смотрите также архив погоды в соседних городах и на ближайших метеорологических станциях:

Погода в Астане 2 (город Астана, Казахстан) (4 км)
Погода в Арнасае (Акмолинская область, Казахстан) (51 км)
Погода в Шортанды (Акмолинская область, Казахстан) (65 км)
Погода в Аршалы (Акмолинская область, Казахстан) (73 км)
Погода в Новомарковке (Акмолинская область, Казахстан) (92 км)
Погода в Киевке (Карагандинская область, Казахстан) (99 км)
Погода в Акколе (Акмолинская область, Казахстан) (101 км)
Погода в Осакаровке (Карагандинская область, Казахстан) (105 км)
Погода в Кургальджин (Акмолинская область, Казахстан) (114 км)
Погода в Жалтыре (Акмолинская область, Казахстан) (122 км)

Пояснения к столбцам:

Ветер - указаны скорость ветра в м/с - средняя за 10 мин, порывы в срок и между сроками (в фигурных скобках) и направление, откуда дует ветер: С - северный, СВ - северо-восточный, В - восточный, ЮВ - юго-восточный, Ю - южный, ЮЗ - юго-западный, З - западный, СЗ - северо-западный.
Видимость - горизонтальная дальность видимости в метрах или километрах. При видимости от 1 до 10 км при отсутствии осадков обычно наблюдается дымка, при ухудшении видимости до 1 км и менее - туман. В сухую погоду видимость может ухудшаться дымом, пылью или мглою.
Явления - указаны атмосферные явления, наблюдавшиеся в срок или в последний час перед сроком; фигурными скобками обозначены явления, наблюдавшиеся между сроками (за 1-3 часа до срока); квадратными скобками обозначены град или гололедные отложения с указанием их диаметра в мм.
Облачность - указаны через наклонную черту общая и нижняя облачность в баллах и высота нижней границы облаков в метрах; квадратными скобками обозначены формы облаков: Ci - перистые, Cs - перисто-слоистые, Cc - перисто-кучевые, Ac - высококучевые, As - высокослоистые, Sc - слоисто-кучевые, Ns - слоисто-дождевые, Cu - кучевые, Cb - кучево-дождевые. Подробнее классификацию облаков см. в Атласе облаков (PDF).
T - Температура воздуха - температура, измеренная на высоте 2 м над землей.
Td - Температура точки росы - температура, при понижении до которой содержащийся в воздухе водяной пар достигнет насыщения.
f - Относительная влажность воздуха - влажноcть воздуха, измеренная на высоте 2 м над землей.
Te - Эффективная температура - температура, которую ощущает одетый по сезону человек в тени. Характеристика душности погоды. При расчете учитывается влияние влажности воздуха и скорости ветра на теплоощущения человека.
Tes - Эффективная температура на солнце - температура, которую ощущает человек, с поправкой на солнечный нагрев. Характеристика знойности погоды. Зависит от высоты солнца над горизонтом, облачности и скорости ветра. Ночью, в пасмурную погоду, а также при ветре 12 м/с и более поправка равна нулю.
P - Атмосферное давление - приведенное к уровню моря атмосферное давление.
Po - Атмосферное давление - измеренное на уровне метеостанции атмосферное давление.
Tmin - Минимальная температура - минимум температуры воздуха на высоте 2 м над землей.
Tmax - Максимальная температура - максимум температуры воздуха на высоте 2 м над землей.
R - Количество осадков - Количество выпавших осадков за период времени, мм. При наведении курсора мыши на число - период времени, за который выпало указанное количество осадков.
R24 - Количество осадков - Количество выпавших осадков за 24 часа, мм.
S - Снежный покров - Высота снежного покрова, см. При наведении курсора мыши на число - состояние снежного покрова и степень покрытия местности в баллах.